Wind_Speed
12 13 14 15 18 22 27 33 38 43 49 53 57 58 59 62 57 32 27 32 53 54 49 48 56 63 62 61 66 75 81 80 86 94 93 82 81 58 40 18 18 20 13
15 15 16 17 19 23 28 33 38 43 48 53 56 57 57 59 56 31 27 29 34 50 59 60 59 62 62 62 67 75 84 81 87 94 86 82 71 46 22 17 16 13 13
16 17 18 19 20 24 29 33 38 44 49 53 56 56 57 56 52 27 21 27 24 32 49 57 61 65 60 63 73 82 85 84 91 94 82 86 62 34 15 8 11 15 18
18 20 20 20 21 25 29 34 39 44 50 52 54 55 56 55 48 25 18 23 29 43 55 57 60 55 58 68 75 82 84 86 92 95 85 84 56 21 18 11 8 13 17
23 22 22 21 23 26 30 35 40 45 48 51 54 56 57 56 49 34 23 26 32 45 49 53 52 54 61 71 77 83 84 85 95 95 82 82 50 11 13 10 9 8 13
27 24 24 22 25 27 31 36 41 45 49 52 57 59 59 56 49 40 32 32 37 44 49 52 54 58 65 72 79 82 83 87 96 91 82 81 46 7 7 9 14 18 16
27 26 23 24 27 29 32 37 43 48 51 54 58 61 61 58 51 40 33 35 38 45 48 53 57 60 63 73 79 81 84 88 96 87 82 83 50 9 9 7 10 10 9
27 24 25 27 28 32 33 38 44 48 53 56 61 63 63 60 50 42 38 39 42 48 49 53 55 58 65 72 79 79 84 88 94 88 85 78 60 14 8 10 12 4 4
27 26 28 29 31 33 35 40 46 50 54 57 62 64 63 60 49 43 41 42 45 49 51 52 56 59 65 72 79 80 82 87 93 92 83 79 64 24 13 14 15 9 4
28 30 29 31 33 35 37 42 48 52 56 60 63 65 63 60 49 44 41 42 47 49 50 55 58 59 66 74 79 80 81 86 92 88 84 80 72 36 11 21 16 15 10
33 31 31 32 35 37 39 44 49 53 57 60 65 66 64 60 50 46 42 42 47 50 51 55 58 61 67 74 79 80 80 84 92 89 85 77 73 44 13 24 21 19 16
33 34 34 33 37 39 41 45 50 54 58 61 65 64 62 58 52 47 43 43 46 50 52 57 59 61 67 73 77 81 78 83 90 92 86 80 74 49 19 20 27 25 23
37 36 36 35 38 41 43 47 51 55 60 62 64 64 61 57 51 47 45 45 48 50 54 56 57 61 67 71 76 80 75 81 89 93 88 78 78 54 29 11 33 30 27
39 37 36 37 40 44 46 50 53 57 61 62 62 62 60 55 51 49 46 46 49 52 54 54 56 61 66 71 76 76 75 80 88 92 90 80 78 57 34 14 27 34 34
40 37 37 39 42 46 49 51 55 58 58 59 57 59 58 53 49 46 44 45 50 53 52 52 55 60 66 71 75 76 74 79 87 91 91 78 79 62 41 22 8 35 34
39 39 39 41 46 49 50 54 56 57 56 55 57 59 57 52 46 44 44 46 48 50 52 52 58 61 65 70 73 72 72 77 84 87 88 79 75 68 49 31 8 27 36
41 42 43 46 50 51 53 56 56 54 53 56 58 60 54 49 45 42 43 46 48 49 52 54 59 60 63 68 70 70 72 75 82 88 90 78 74 74 55 36 19 8 36
47 47 48 51 53 53 57 56 54 53 57 58 58 60 52 47 43 42 43 45 49 52 53 55 58 61 62 66 68 67 69 72 79 83 85 79 77 78 62 43 28 12 16
52 51 53 55 57 57 56 56 56 56 58 60 62 58 48 44 42 41 42 45 49 52 53 54 56 58 60 66 68 65 66 72 74 78 80 82 77 77 72 51 35 22 8
58 59 59 60 58 58 58 58 56 59 64 63 60 49 46 42 41 42 43 44 48 53 52 53 54 56 58 65 66 64 65 69 73 79 76 79 76 73 77 63 43 29 15
65 63 60 63 63 62 64 63 63 64 61 65 52 46 43 41 41 42 45 47 49 55 53 52 53 55 57 63 65 63 62 65 68 74 73 75 80 73 70 73 52 36 22
66 65 65 67 66 63 60 61 59 66 63 54 48 43 41 41 41 42 46 47 51 54 53 51 51 54 56 62 65 63 59 64 68 73 66 70 77 75 66 68 65 44 30
70 69 68 68 63 61 61 63 63 65 59 48 46 42 42 43 44 44 46 47 52 54 53 51 51 54 58 62 66 61 57 60 68 67 60 64 71 73 68 65 67 59 40
72 68 62 63 65 68 69 66 61 54 50 49 49 42 42 43 45 46 49 49 52 53 54 54 52 56 59 61 63 59 57 58 65 60 63 62 67 71 73 62 60 64 58
70 68 71 73 73 69 65 57 57 56 53 50 49 45 44 46 48 48 50 53 54 54 54 54 55 56 58 59 58 58 54 53 57 59 60 60 62 68 68 57 56 58 61
70 71 67 64 65 65 63 64 57 52 53 52 53 48 49 49 49 51 53 54 54 55 56 55 57 55 56 56 56 58 48 51 53 57 56 58 61 68 67 56 49 51 57
Wind_Direction
267 282 300 315 332 338 342 346 350 352 354 355 356 355 354 353 354 2 24 2 350 333 331 335 333 339 339 331 336 340 339 338 340 341 343 341 338 337 336 337 325 343 29
269 281 295 309 327 333 339 342 348 349 352 354 354 353 353 355 352 359 7 360 8 322 321 330 334 335 338 338 337 342 342 343 344 346 348 346 344 343 337 339 357 46 42
269 282 294 307 323 328 336 339 343 345 350 352 351 350 350 351 351 350 5 355 316 309 321 326 330 334 337 335 342 344 345 346 346 348 351 351 347 342 328 4 9 36 53
267 278 290 303 320 323 332 335 339 344 349 347 347 345 347 349 349 346 330 311 306 316 321 324 328 334 335 341 346 345 348 347 346 350 355 352 349 333 333 2 21 69 61
264 276 286 303 312 321 329 332 334 342 342 344 344 344 346 346 345 341 325 302 305 312 314 320 330 334 340 344 345 348 349 348 348 351 358 358 350 322 360 91 97 91 64
265 275 288 303 307 319 326 327 333 336 339 343 344 343 345 343 346 345 328 314 316 323 328 329 333 334 336 343 348 349 350 350 349 353 0 0 354 297 20 126 90 73 44
269 278 293 297 308 317 321 326 330 332 337 342 343 342 343 341 344 343 341 332 325 328 332 336 339 340 344 346 350 350 350 351 353 354 1 1 357 289 281 185 124 68 64
270 282 287 298 308 310 318 325 325 330 337 340 342 342 341 341 342 345 339 336 335 337 337 341 342 345 346 347 350 350 350 352 354 355 359 359 357 312 272 199 153 82 99
270 275 284 295 305 308 318 320 323 330 336 339 341 341 340 341 343 343 338 336 339 340 343 339 343 343 347 349 352 352 352 353 354 354 356 358 360 342 270 199 179 188 151
267 273 286 296 302 306 314 319 323 330 334 338 340 340 340 340 341 340 338 339 341 341 341 344 344 346 348 349 353 352 351 352 352 353 354 357 359 351 271 185 185 198 207
266 277 286 294 298 304 312 318 323 330 332 337 339 339 339 337 339 339 337 338 339 339 341 343 344 346 347 349 352 351 350 352 353 352 355 358 357 355 307 204 189 189 198
269 276 284 292 295 303 312 317 323 328 331 335 338 337 335 334 338 338 335 336 338 339 339 341 344 343 345 349 351 351 350 351 352 353 354 357 358 357 337 220 199 192 201
268 276 284 290 296 303 310 315 322 326 330 334 335 335 334 333 336 336 334 335 336 337 338 339 344 346 347 349 351 350 350 351 351 354 356 356 359 356 354 263 204 199 202
269 276 284 291 296 302 310 314 320 325 329 331 332 332 330 332 334 334 333 335 338 338 337 340 345 346 347 349 351 350 349 352 353 357 356 358 0 357 356 334 218 205 205
269 278 284 290 296 301 306 314 319 324 328 329 330 330 330 330 331 332 333 336 336 338 339 341 343 345 347 349 349 350 350 353 354 354 357 359 4 2 1 355 258 210 208
272 278 284 289 293 299 308 312 317 323 324 327 329 330 327 325 327 330 332 333 334 339 340 340 342 345 346 348 349 350 350 352 354 353 357 358 3 7 5 1 333 214 211
270 275 282 289 293 301 304 309 316 319 322 324 326 328 323 323 325 328 331 332 332 336 340 340 340 343 344 346 350 350 350 352 354 355 358 360 5 8 9 3 354 250 213
269 277 284 289 294 297 302 307 312 315 320 322 324 325 319 319 322 326 329 329 330 335 335 337 339 342 344 347 352 351 349 354 356 356 359 1 2 9 10 7 1 336 232
274 279 284 288 290 294 298 304 307 312 318 320 322 320 315 315 321 323 325 327 332 334 335 334 336 340 344 348 350 349 349 353 358 359 0 360 3 5 11 11 5 1 302
275 277 280 282 287 293 297 301 303 309 314 315 316 313 312 313 319 319 320 324 332 333 333 334 336 339 343 347 349 349 347 350 353 356 358 359 3 4 10 12 9 5 356
270 274 277 281 287 290 293 297 302 306 308 311 311 309 310 312 315 313 316 321 325 330 332 333 336 340 342 345 347 348 344 350 355 356 358 359 1 3 3 10 10 5 2
270 273 277 281 285 288 291 295 299 305 306 304 303 303 307 308 309 314 316 321 324 329 332 334 337 340 342 344 347 345 344 346 349 352 358 358 359 3 2 8 14 9 4
271 273 274 277 280 285 289 293 296 300 300 296 300 299 302 305 309 314 319 319 321 327 331 335 338 339 340 343 344 343 345 342 346 356 358 357 358 1 1 0 7 12 9
272 274 272 278 282 284 288 294 293 292 293 293 294 294 297 301 306 312 316 318 320 326 330 332 336 335 339 341 340 342 343 346 348 359 1 355 353 356 358 360 4 9 11
268 268 274 279 279 281 285 287 285 285 287 287 288 292 292 296 302 307 312 316 320 323 328 330 331 334 337 339 339 339 342 351 353 355 356 2 354 352 353 359 3 6 8
268 271 272 274 273 274 278 281 277 276 282 284 289 287 288 292 299 304 308 314 316 321 324 326 328 333 336 338 337 339 341 350 355 359 357 360 353 351 350 356 357 5 7
Height
11012 11013 11012 11011 11010 11008 11004 11000 10996 10989 10983 10976 10967 10957 10948 10937 10931 10925 10922 10917 10915 10906 10898 10887 10878 10869 10860 10849 10838 10828 10811 10791 10769 10744 10721 10697 10669 10648 10636 10627 10622 10619 10616
11010 11010 11010 11009 11008 11005 11002 10998 10993 10988 10982 10974 10966 10956 10949 10941 10932 10925 10922 10924 10927 10891 10892 10883 10872 10864 10851 10842 10833 10819 10802 10779 10759 10736 10712 10685 10659 10645 10635 10629 10625 10622 10620
11008 11007 11007 11006 11005 11002 10999 10996 10991 10986 10980 10971 10963 10956 10947 10940 10934 10926 10924 10919 10916 10904 10887 10877 10868 10858 10848 10837 10823 10805 10786 10766 10746 10725 10702 10678 10657 10643 10636 10633 10629 10627 10624
11004 11004 11004 11003 11002 10999 10996 10992 10988 10983 10976 10971 10963 10955 10946 10939 10931 10925 10919 10910 10903 10890 10881 10871 10866 10856 10845 10831 10815 10797 10777 10758 10739 10717 10695 10674 10654 10644 10639 10635 10632 10630 10628
11000 11000 11000 11000 10998 10995 10993 10989 10985 10980 10976 10969 10959 10951 10943 10935 10927 10920 10915 10906 10897 10888 10880 10872 10862 10851 10838 10823 10807 10789 10771 10752 10733 10711 10690 10671 10651 10643 10641 10636 10634 10632 10631
10996 10996 10996 10996 10994 10991 10989 10985 10980 10976 10972 10964 10954 10945 10938 10930 10921 10912 10906 10901 10892 10882 10873 10863 10854 10842 10829 10815 10798 10783 10765 10747 10726 10705 10686 10668 10651 10643 10642 10639 10637 10635 10631
10991 10991 10992 10991 10989 10986 10985 10980 10975 10971 10966 10959 10949 10939 10929 10921 10912 10906 10900 10894 10887 10877 10868 10859 10847 10836 10822 10807 10792 10776 10760 10742 10720 10699 10682 10665 10650 10643 10640 10639 10636 10635 10631
10985 10985 10986 10984 10984 10982 10980 10975 10971 10966 10959 10952 10942 10932 10923 10913 10904 10898 10892 10886 10878 10870 10862 10852 10843 10830 10819 10805 10789 10772 10753 10735 10714 10696 10680 10668 10651 10641 10638 10636 10635 10634 10632
10979 10980 10980 10979 10978 10976 10974 10970 10964 10959 10952 10946 10936 10927 10917 10908 10899 10892 10887 10880 10872 10865 10855 10847 10838 10827 10815 10801 10784 10765 10749 10731 10713 10695 10679 10666 10648 10637 10635 10633 10633 10633 10631
10972 10972 10973 10973 10972 10970 10968 10964 10958 10952 10946 10938 10930 10921 10911 10903 10895 10888 10882 10875 10867 10860 10852 10842 10832 10821 10809 10795 10779 10763 10747 10731 10713 10694 10677 10659 10646 10634 10631 10630 10629 10630 10630
10965 10965 10966 10967 10965 10964 10962 10958 10951 10946 10941 10932 10924 10915 10907 10898 10891 10883 10877 10871 10863 10855 10847 10838 10828 10816 10804 10791 10777 10761 10747 10730 10712 10693 10674 10661 10646 10630 10623 10624 10625 10626 10627
10957 10958 10960 10961 10959 10957 10955 10951 10945 10940 10934 10925 10918 10909 10901 10893 10886 10880 10873 10867 10860 10852 10842 10833 10824 10812 10800 10788 10774 10760 10746 10728 10709 10688 10670 10655 10638 10625 10618 10617 10619 10620 10623
10949 10951 10952 10954 10952 10949 10947 10944 10939 10934 10927 10919 10912 10904 10895 10887 10880 10874 10868 10863 10855 10847 10838 10829 10820 10809 10798 10785 10772 10757 10743 10726 10708 10688 10669 10652 10636 10620 10612 10610 10613 10615 10618
10941 10944 10945 10945 10944 10941 10939 10936 10932 10927 10919 10912 10906 10898 10890 10882 10876 10870 10865 10858 10851 10843 10835 10826 10817 10806 10795 10782 10769 10755 10740 10724 10705 10686 10668 10652 10636 10618 10608 10603 10605 10609 10613
10934 10936 10937 10937 10935 10932 10931 10927 10924 10919 10912 10906 10900 10893 10885 10878 10873 10867 10861 10855 10848 10841 10832 10823 10813 10803 10792 10779 10765 10752 10737 10722 10705 10686 10668 10652 10636 10616 10605 10599 10598 10603 10609
10925 10927 10928 10928 10926 10924 10920 10918 10916 10911 10905 10900 10895 10888 10881 10875 10869 10863 10858 10852 10845 10837 10829 10820 10810 10800 10788 10777 10764 10750 10736 10720 10704 10687 10669 10652 10637 10618 10605 10599 10596 10599 10604
10915 10917 10918 10917 10915 10913 10912 10910 10906 10902 10899 10893 10889 10883 10876 10871 10865 10859 10854 10848 10842 10834 10826 10817 10807 10798 10786 10775 10762 10748 10735 10719 10704 10687 10669 10653 10639 10622 10608 10601 10598 10596 10600
10904 10905 10906 10905 10903 10904 10903 10900 10898 10895 10891 10887 10882 10878 10872 10867 10860 10855 10850 10844 10837 10830 10822 10813 10804 10794 10784 10772 10759 10746 10733 10718 10704 10688 10672 10657 10643 10629 10612 10604 10598 10595 10595
10890 10893 10893 10893 10893 10894 10892 10890 10888 10885 10883 10880 10876 10871 10865 10860 10855 10851 10846 10839 10833 10825 10817 10808 10799 10789 10779 10769 10758 10744 10732 10719 10705 10690 10676 10662 10647 10632 10618 10607 10601 10596 10594
10877 10880 10883 10881 10882 10882 10881 10880 10878 10875 10873 10871 10868 10863 10858 10853 10849 10845 10840 10835 10828 10821 10813 10804 10795 10786 10776 10767 10755 10743 10731 10719 10706 10692 10678 10666 10653 10639 10626 10613 10605 10599 10596
10867 10868 10870 10866 10871 10869 10869 10868 10867 10866 10863 10861 10859 10855 10850 10846 10842 10838 10834 10829 10824 10816 10808 10799 10791 10782 10773 10764 10753 10743 10730 10719 10706 10694 10681 10669 10657 10644 10632 10623 10611 10604 10598
10853 10854 10858 10855 10853 10856 10856 10855 10855 10856 10853 10849 10848 10845 10842 10838 10835 10832 10828 10823 10817 10811 10803 10795 10787 10778 10770 10761 10751 10741 10730 10720 10708 10696 10683 10672 10660 10648 10637 10628 10619 10609 10602
10838 10841 10842 10843 10842 10841 10842 10844 10843 10842 10841 10838 10837 10835 10833 10829 10827 10824 10820 10816 10811 10804 10798 10790 10783 10775 10767 10758 10749 10739 10730 10720 10710 10698 10685 10675 10664 10652 10643 10632 10623 10614 10607
10820 10823 10824 10825 10826 10827 10829 10830 10830 10830 10830 10827 10823 10824 10822 10819 10816 10813 10811 10807 10803 10798 10792 10785 10779 10771 10763 10755 10746 10738 10729 10720 10712 10700 10689 10677 10667 10658 10648 10637 10627 10618 10609
10803 10806 10808 10811 10810 10811 10814 10815 10815 10817 10818 10817 10813 10815 10812 10810 10808 10805 10802 10798 10795 10791 10786 10779 10774 10767 10759 10751 10744 10736 10728 10720 10711 10700 10690 10679 10668 10661 10651 10642 10633 10622 10612
10790 10789 10792 10795 10795 10797 10800 10800 10801 10802 10804 10803 10801 10800 10800 10800 10798 10796 10793 10790 10787 10783 10778 10773 10768 10762 10755 10747 10741 10733 10725 10719 10710 10699 10690 10680 10670 10662 10653 10643 10636 10628 10618